Location: ????
(30.2436°N, 31.2444°E)
Time: 22:44:29
(UTC+00:00)

Daily predictions for brighter satellites

Satellite Brightness Start Highest point End
(mag) Time Altitude Azimuth Time Altitude Azimuth Time Altitude Azimuth
Cosmos 1943 3.4 17:12:16 10° N 17:17:48 55° ENE 17:23:18 10° SE
OAO 3 Copernicus 4.4 17:15:09 10° WNW 17:20:13 81° NNE 17:25:18 10° ESE
Cosmos 2084 3.9 17:24:00 10° SW 17:28:16 66° WNW 17:32:20 10° NNE
Sich 1 Rocket 4.3 17:24:32 10° NNE 17:28:40 36° E 17:32:48 10° SSE
Palapa 6 Rocket 4.4 17:27:36 10° SW 17:30:55 22° SSE 17:34:42 10° ESE
CSL-04 Rocket 4.3 17:26:17 10° SE 17:31:18 39° ENE 17:36:24 10° N
OAO 2 Rocket 3.4 17:32:13 10° WNW 17:37:22 83° NNE 17:42:22 11° ESE
SL-16 R/B 4.4 17:34:23 10° NW 17:38:46 23° W 17:43:09 10° SSW
Resurs 01 Rocket 1.8 17:36:57 10° SSE 17:41:12 53° ENE 17:45:28 10° N
Okean O Rocket 2.3 17:39:10 10° SE 17:43:00 34° ENE 17:46:55 10° N
Cosmos 1607 4.0 17:36:52 10° NNW 17:43:13 89° WSW 17:49:23 10° SSE
MOS 1-B Rocket 3.9 17:38:37 10° SSE 17:44:15 74° ENE 17:50:29 10° N
Okean 2 Rocket 3.2 17:40:28 10° N 17:44:53 58° E 17:49:15 10° SSE
Cosmos 2151 Rocket 3.6 17:42:33 10° N 17:46:59 71° E 17:51:25 10° SSE
Cosmos 1603 3.8 17:41:23 10° NNW 17:47:00 60° ENE 17:52:13 12° SSE
Cosmos 923 Rocket 4.3 17:44:25 10° NNW 17:49:35 70° WSW 17:54:43 10° S
Cosmos 2074 Rocket 4.1 17:44:04 10° SSE 17:50:05 53° E 17:56:09 10° NNE
USA 186 1.7 17:47:36 10° S 17:50:40 81° W 17:53:42 10° NNW
SL-24 R/B 4.0 17:47:44 12° SSE 17:50:59 49° ENE 17:54:43 10° N
H-2A R/B 3.0 17:46:52 10° SSW 17:51:17 23° SSE 17:53:30 17° ESE
Cosmos 2154 Rocket 4.4 17:46:41 10° SSE 17:52:34 43° E 17:58:30 10° NNE
MOS 1-B 4.4 17:48:17 10° SSE 17:53:58 63° ENE 17:59:42 10° N
CSL-04 Debris 4.1 17:49:02 10° SSE 17:54:22 72° ENE 17:59:42 10° N
Cosmos 1328 3.7 17:50:38 10° S 17:54:26 86° W 17:58:14 10° N
SPOT 1/Viking Rocket 4.4 17:51:03 10° S 17:56:01 49° W 18:01:02 10° NNW
CZ-4 R/B 2.5 17:54:21 10° S 17:58:11 43° W 18:02:01 10° NNW
Terra 3.9 17:58:30 10° ENE 17:59:24 10° ENE 18:00:17 10° NE
Cosmos 44 3.5 17:58:03 10° SSW 18:03:17 59° ESE 18:08:25 10° NE
ARGOS Delta rocket 4.1 18:01:27 17° SE 18:04:51 50° ENE 18:09:32 10° N
Cosmos 2098 Rocket 4.1 18:09:09 10° NNW 18:12:22 32° W 18:15:11 10° SSW
CZ-4C R/B 3.5 18:11:49 10° NNE 18:15:06 37° E 18:15:43 33° SE
Okean-O 3.1 18:13:14 25° SE 18:15:17 43° ENE 18:19:27 10° N
Cosmos 1680 Rocket 4.3 18:13:35 10° NNW 18:18:38 49° WSW 18:23:41 10° S
In-Cosmos 22 Rocket 4.3 18:13:05 10° S 18:18:44 61° E 18:24:18 10° NNE
Hubble Space Telescope 0.9 18:16:23 10° W 18:20:16 54° S 18:21:32 36° SE
NOSS 3-1 (C) 3.1 18:16:22 10° S 18:20:37 39° ESE 18:25:17 10° NE
OAO 3 Rocket 3.7 18:18:07 10° SSW 18:22:15 33° SSE 18:22:49 32° SE
Skynet4D Del rocket 4.1 18:19:15 10° W 18:25:09 47° SSW 18:27:36 29° SE
Yuri Rocket 4.2 18:18:27 10° W 18:27:17 77° S 18:31:20 25° E
Cosmos 494 Rocket 4.0 18:22:06 10° N 18:27:20 68° ENE 18:29:51 30° SSE
Cosmos 1025 Rocket 4.3 18:31:51 10° SSW 18:35:49 40° W 18:39:49 10° N
Cosmos 1125 Rocket 3.8 18:33:26 10° SSW 18:38:41 70° WNW 18:43:59 10° N
IRS-1C Rocket 4.4 18:38:48 36° ESE 18:40:20 47° ENE 18:45:22 10° N
H-II Stage 2 2.3 18:37:51 10° W 18:40:38 64° S 18:43:23 31° ESE
ATLAS CENTAUR R/B 1.8 18:42:11 10° NNW 18:46:08 46° ENE 18:46:25 45° ENE
Cosmos 1833 Rocket 4.1 18:42:01 10° NNE 18:46:18 22° ENE 18:47:11 21° ENE
Nadezhda 3 Rocket 3.9 18:40:21 10° N 18:46:29 73° E 18:49:14 35° SSE
Cosmos 1975 Rocket 3.2 18:44:30 23° SSW 18:47:10 72° W 18:51:38 10° N
Cosmos 2327 Rocket 4.4 18:44:37 24° S 18:48:29 76° E 18:54:46 10° N
MetOp-B 4.0 18:47:30 40° SSE 18:49:29 79° ENE 18:54:51 10° N
Cosmos 2150 Rocket 3.9 18:48:12 26° S 18:51:20 77° ESE 18:56:46 10° NNE
Cosmos 1455 Rocket 2.9 18:47:50 10° N 18:52:12 89° E 18:52:59 60° S
Cosmos 962 Rocket 4.3 18:58:50 36° S 19:01:31 78° E 19:07:40 10° N
Cosmos 2278 Rocket 2.2 19:03:07 54° ESE 19:03:20 54° ESE 19:08:50 10° NNE
SPOT 3 Rocket 4.2 19:04:02 39° ENE 19:04:07 39° ENE 19:08:56 10° N
Cosmos 2218 Rocket 3.9 19:13:17 56° ESE 19:13:49 58° E 19:19:50 10° NNE
SPOT 5 3.5 19:13:07 39° SW 19:14:28 50° W 19:19:24 10° NNW
ERS-1 Rocket 2.8 19:14:59 75° S 19:15:25 88° WSW 19:20:26 10° NNW
Meteor 2-1 Rocket 4.0 19:10:18 10° N 19:15:52 88° W 19:16:42 66° S
Cosmos 921 Rocket 4.0 19:11:59 10° NNW 19:15:54 38° W 19:16:21 37° WSW
MOS 1 Rocket 3.2 19:16:08 78° NE 19:16:08 78° NE 19:20:26 10° N
Okean O Rocket 4.2 19:16:58 10° SW 19:19:19 14° W 19:21:40 10° WNW
Cosmos 2228 4.4 19:17:43 10° N 19:20:04 29° NNE 19:20:04 29° NNE
Spot 2 Rocket 3.4 19:24:58 80° NE 19:24:58 80° NE 19:29:57 10° N
Cosmos 1869 4.3 19:22:04 10° N 19:24:41 41° NNW 19:24:41 41° NNW
Cosmos 1943 Rocket 2.9 19:27:47 38° ENE 19:27:47 38° ENE 19:31:33 10° NNE
Cosmos 1339 Rocket 4.4 19:21:30 10° N 19:27:39 82° W 19:28:43 63° SSW
Cosmos 2341 Rocket 4.0 19:27:26 49° SSW 19:29:14 78° W 19:35:34 10° N
H-2A R/B 3.8 19:30:21 10° WSW 19:31:22 15° WSW 19:31:22 15° WSW
Terra 2.2 19:36:46 58° WNW 19:36:46 58° WNW 19:41:03 10° NNW
Milstar 3 3.5 19:29:45 10° SW 19:37:02 54° SSE 19:49:23 10° E
ATLAS 3B R/B 2.6 19:40:11 72° SSE 19:40:39 75° ESE 19:48:02 10° NNE
USA 215 3.1 19:49:37 79° ESE 19:50:03 85° NE 19:56:38 10° NW
Ariane Rocket 3.6 19:53:09 53° WNW 19:53:09 53° WNW 19:57:27 10° NNW
Cosmos 1821 Rocket 4.1 19:54:21 66° NE 19:54:21 66° NE 19:59:55 10° N
Cosmos 1833 Rocket 4.0 20:25:03 10° NW 20:28:52 34° WNW 20:28:52 34° WNW
Cosmos 2369 Rocket 4.4 20:51:32 17° NE 20:51:32 17° NE 20:52:47 10° NE
Cosmos 2082 Rocket 3.5 20:44:48 10° NNW 20:48:00 35° N 20:48:00 35° N
Cosmos 1943 Rocket 4.4 21:09:13 17° WNW 21:10:04 17° WNW 21:13:43 10° NNW
CZ-4C R/B 3.4 21:39:39 10° NNW 21:46:33 61° NNE 21:46:33 61° NNE
Milstar 3 4.2 22:11:43 10° W 22:22:13 83° S 22:44:06 10° E
Cosmos 2369 Rocket 4.4 22:33:17 17° NW 22:33:17 17° NW 22:35:38 10° NNW
CENTAUR R/B 4.2 22:31:37 10° NNW 22:39:48 42° NE 22:43:38 30° E
CZ-2C R/B 4.1 23:24:27 34° ENE 23:24:27 34° ENE 23:29:11 10° N
NOSS 3-4 (C) 4.3 23:41:08 38° ENE 23:41:08 38° ENE 23:44:56 10° NE
NOSS 3-4 (A) 4.3 23:41:36 38° ENE 23:41:36 38° ENE 23:45:19 10° NE
SJ 16-02 3.7 23:37:06 10° N 23:38:32 20° N 23:38:32 20° N
CZ-2D R/B 3.1 23:38:39 10° NNE 23:42:13 43° NE 23:42:13 43° NE
ALOS 4.2 23:47:17 10° NE 23:50:07 23° ENE 23:50:07 23° ENE
USA 234 4.1 23:47:34 10° NNE 23:53:29 38° NW 23:54:21 36° WNW
